When you browse on this site, cookies collect data to enhance your experience and personalize the content and advertising you see.
Visit our Privacy Policy to learn more. By continuing to use the site, you agree to this use of cookies and data.
  • In Hungary
  • List of Countries
  • For 7 days
  • Water Temperature
  • Satellite Maps
  • Weather Map
  • News
  • Weather Widgets
  • user-avatar
    Login

    Hourly Weather Soltystwo

    Today, 20 May, Monday

    Time Temperature Precipitation Wind Pressure Humidity
    00:00 +14°C° 0 mm 3 mps 735 mmHg 93%
    01:00 +14°C° 0 mm 3 mps 735 mmHg 94%
    02:00 +14°C° 0 mm 3 mps 735 mmHg 95%
    03:00 +14°C° 0 mm 3 mps 734 mmHg 96%
    04:00 +14°C° 0 mm 4 mps 734 mmHg 97%
    05:00 +15°C° 0 mm 4 mps 734 mmHg 93%
    06:00 +17°C° 0 mm 5 mps 734 mmHg 88%
    07:00 +20°C° 0 mm 5 mps 734 mmHg 79%
    08:00 +21°C° 0 mm 6 mps 734 mmHg 74%
    09:00 +22°C° 0 mm 6 mps 734 mmHg 68%
    10:00 +23°C° 0 mm 7 mps 735 mmHg 62%
    11:00 +23°C° 0 mm 7 mps 735 mmHg 59%
    12:00 +23°C° 0 mm 7 mps 735 mmHg 57%
    13:00 +23°C° 0 mm 5 mps 735 mmHg 58%
    14:00 +22°C° 0 mm 5 mps 735 mmHg 59%
    15:00 +22°C° 0 mm 5 mps 735 mmHg 61%
    16:00 +22°C° 0 mm 5 mps 735 mmHg 62%
    17:00 +21°C° 0 mm 4 mps 735 mmHg 68%
    18:00 +19°C° 0 mm 4 mps 735 mmHg 74%
    19:00 +18°C° 0 mm 3 mps 735 mmHg 80%
    20:00 +17°C° 0 mm 3 mps 735 mmHg 84%
    21:00 +14°C° 0 mm 3 mps 735 mmHg 88%
    22:00 +14°C° 0 mm 2 mps 735 mmHg 92%
    23:00 +14°C° 0 mm 2 mps 735 mmHg 92%

    Tomorrow, 21 May, Tuesday

    Time Temperature Precipitation Wind Pressure Humidity
    00:00 +13°C° 0 mm 2 mps 735 mmHg 93%
    01:00 +13°C° 0 mm 1 mps 735 mmHg 93%
    02:00 +12°C° 0 mm 1 mps 735 mmHg 93%
    03:00 +12°C° 0 mm 1 mps 735 mmHg 92%
    04:00 +12°C° 0 mm 1 mps 735 mmHg 92%
    05:00 +13°C° 0 mm 1 mps 735 mmHg 88%
    06:00 +15°C° 0 mm 1 mps 735 mmHg 83%
    07:00 +16°C° 0 mm 2 mps 735 mmHg 79%
    08:00 +17°C° 0.1 mm 2 mps 734 mmHg 77%
    09:00 +18°C° 0.1 mm 3 mps 734 mmHg 75%
    10:00 +19°C° 0.1 mm 3 mps 734 mmHg 73%
    11:00 +19°C° 0.4 mm 3 mps 734 mmHg 74%
    12:00 +19°C° 0.4 mm 3 mps 734 mmHg 75%
    13:00 +19°C° 0.4 mm 4 mps 733 mmHg 76%
    14:00 +18°C° 1.2 mm 4 mps 733 mmHg 80%
    15:00 +17°C° 1.2 mm 4 mps 733 mmHg 83%
    16:00 +17°C° 1.2 mm 4 mps 733 mmHg 87%
    17:00 +17°C° 1.6 mm 4 mps 733 mmHg 87%
    18:00 +15°C° 1.6 mm 4 mps 733 mmHg 87%
    19:00 +15°C° 1.6 mm 4 mps 733 mmHg 87%
    20:00 +15°C° 1.1 mm 5 mps 733 mmHg 89%
    21:00 +14°C° 1.1 mm 5 mps 733 mmHg 91%
    22:00 +14°C° 1.1 mm 5 mps 733 mmHg 93%
    23:00 +14°C° 1.1 mm 5 mps 733 mmHg 93%

    Day after tomorrow, 22 May, Wednesday

    Time Temperature Precipitation Wind Pressure Humidity
    00:00 +14°C° 1.1 mm 5 mps 733 mmHg 94%
    01:00 +14°C° 1.1 mm 5 mps 733 mmHg 94%
    02:00 +14°C° 1 mm 5 mps 733 mmHg 95%
    03:00 +14°C° 1 mm 5 mps 733 mmHg 95%
    04:00 +13°C° 1 mm 5 mps 733 mmHg 95%
    05:00 +13°C° 0.6 mm 4 mps 733 mmHg 94%
    06:00 +14°C° 0.6 mm 4 mps 733 mmHg 94%
    07:00 +14°C° 0.6 mm 4 mps 733 mmHg 93%
    08:00 +14°C° 0.6 mm 4 mps 734 mmHg 92%
    09:00 +14°C° 0.6 mm 3 mps 734 mmHg 92%
    10:00 +14°C° 0.6 mm 3 mps 734 mmHg 91%
    11:00 +14°C° 0.4 mm 3 mps 734 mmHg 91%
    12:00 +14°C° 0.4 mm 3 mps 735 mmHg 91%
    13:00 +14°C° 0.4 mm 3 mps 735 mmHg 92%
    14:00 +14°C° 0.1 mm 4 mps 735 mmHg 90%
    15:00 +15°C° 0.1 mm 4 mps 735 mmHg 88%
    16:00 +15°C° 0.1 mm 5 mps 735 mmHg 86%
    17:00 +15°C° 0.7 mm 5 mps 735 mmHg 88%
    18:00 +15°C° 0.7 mm 5 mps 735 mmHg 89%
    19:00 +14°C° 0.7 mm 4 mps 735 mmHg 91%
    20:00 +14°C° 0.4 mm 4 mps 736 mmHg 93%
    21:00 +14°C° 0.4 mm 5 mps 736 mmHg 94%
    22:00 +13°C° 0.4 mm 5 mps 736 mmHg 96%
    23:00 +13°C° 0.1 mm 5 mps 737 mmHg 96%

    23 May, Thursday

    Time Temperature Precipitation Wind Pressure Humidity
    00:00 +13°C° 0.1 mm 5 mps 737 mmHg 96%
    01:00 +13°C° 0.1 mm 5 mps 737 mmHg 97%
    02:00 +13°C° 0.2 mm 5 mps 738 mmHg 96%
    03:00 +13°C° 0.2 mm 5 mps 738 mmHg 96%
    04:00 +14°C° 0.2 mm 5 mps 738 mmHg 96%
    05:00 +14°C° 0.6 mm 5 mps 739 mmHg 95%
    06:00 +14°C° 0.6 mm 5 mps 739 mmHg 94%
    07:00 +14°C° 0.6 mm 6 mps 739 mmHg 93%
    08:00 +13°C° 0.5 mm 6 mps 740 mmHg 93%
    09:00 +12°C° 0.5 mm 7 mps 740 mmHg 93%
    10:00 +11°C° 0.5 mm 7 mps 741 mmHg 93%
    11:00 +11°C° 0.1 mm 7 mps 741 mmHg 93%
    12:00 +10°C° 0.1 mm 7 mps 741 mmHg 92%
    13:00 +10°C° 0.1 mm 7 mps 742 mmHg 92%
    14:00 +10°C° 0.1 mm 7 mps 742 mmHg 91%
    15:00 +10°C° 0.1 mm 7 mps 742 mmHg 90%
    16:00 +10°C° 0.1 mm 7 mps 742 mmHg 89%
    17:00 +10°C° 0 mm 6 mps 742 mmHg 87%
    18:00 +9°C° 0 mm 5 mps 742 mmHg 85%
    19:00 +10°C° 0 mm 4 mps 742 mmHg 84%
    20:00 +10°C° 0 mm 4 mps 743 mmHg 83%
    21:00 +10°C° 0 mm 4 mps 743 mmHg 82%
    22:00 +10°C° 0 mm 4 mps 743 mmHg 82%
    23:00 +10°C° 0 mm 3 mps 743 mmHg 83%

    24 May, Friday

    Time Temperature Precipitation Wind Pressure Humidity
    00:00 +10°C° 0 mm 3 mps 743 mmHg 84%
    01:00 +10°C° 0 mm 3 mps 743 mmHg 86%
    02:00 +10°C° 0 mm 3 mps 743 mmHg 88%
    03:00 +9°C° 0 mm 3 mps 742 mmHg 90%
    04:00 +8°C° 0 mm 2 mps 742 mmHg 93%
    05:00 +9°C° 0 mm 3 mps 742 mmHg 85%
    06:00 +10°C° 0 mm 3 mps 742 mmHg 77%
    07:00 +12°C° 0 mm 3 mps 742 mmHg 69%
    08:00 +13°C° 0 mm 4 mps 742 mmHg 64%
    09:00 +14°C° 0 mm 4 mps 742 mmHg 58%
    10:00 +15°C° 0 mm 4 mps 742 mmHg 52%
    11:00 +17°C° 0 mm 4 mps 741 mmHg 50%
    12:00 +18°C° 0 mm 4 mps 741 mmHg 49%
    13:00 +19°C° 0 mm 4 mps 741 mmHg 47%
    14:00 +19°C° 0 mm 3 mps 740 mmHg 49%
    15:00 +19°C° 0 mm 3 mps 740 mmHg 50%
    16:00 +19°C° 0 mm 3 mps 740 mmHg 52%
    17:00 +17°C° 0 mm 2 mps 739 mmHg 58%
    18:00 +16°C° 0 mm 2 mps 739 mmHg 64%
    19:00 +14°C° 0 mm 1 mps 739 mmHg 70%
    20:00 +13°C° 0 mm 1 mps 739 mmHg 73%
    21:00 +12°C° 0 mm 1 mps 739 mmHg 75%
    22:00 +11°C° 0 mm 1 mps 739 mmHg 77%
    23:00 +11°C° 0 mm 1 mps 739 mmHg 79%

    25 May, Saturday

    Time Temperature Precipitation Wind Pressure Humidity
    00:00 +10°C° 0 mm 1 mps 739 mmHg 81%
    01:00 +10°C° 0 mm 1 mps 739 mmHg 83%
    02:00 +10°C° 0 mm 1 mps 739 mmHg 83%
    03:00 +8°C° 0 mm 0 mps 739 mmHg 84%
    04:00 +8°C° 0 mm 0 mps 739 mmHg 85%
    05:00 +11°C° 0 mm 1 mps 739 mmHg 80%
    06:00 +13°C° 0 mm 1 mps 739 mmHg 75%
    07:00 +15°C° 0 mm 1 mps 739 mmHg 70%
    08:00 +16°C° 0 mm 1 mps 739 mmHg 65%
    09:00 +18°C° 0 mm 2 mps 739 mmHg 61%
    10:00 +19°C° 0 mm 2 mps 739 mmHg 57%
    11:00 +20°C° 0 mm 2 mps 739 mmHg 55%
    12:00 +20°C° 0 mm 2 mps 738 mmHg 52%
    13:00 +21°C° 0 mm 2 mps 738 mmHg 50%
    14:00 +21°C° 0 mm 2 mps 738 mmHg 51%
    15:00 +21°C° 0 mm 2 mps 738 mmHg 51%
    16:00 +23°C° 0 mm 2 mps 738 mmHg 51%
    17:00 +21°C° 0 mm 1 mps 738 mmHg 58%
    18:00 +20°C° 0 mm 1 mps 738 mmHg 65%
    19:00 +18°C° 0 mm 1 mps 738 mmHg 72%
    20:00 +16°C° 0 mm 1 mps 738 mmHg 77%
    21:00 +15°C° 0 mm 1 mps 738 mmHg 81%
    22:00 +14°C° 0 mm 1 mps 739 mmHg 85%
    23:00 +14°C° 0 mm 2 mps 739 mmHg 89%
    Show more